Regional Weather Roundup
Issued by NWS

Home | Current Version | Previous Version | Text Only | Print | Product List | Glossary Off
Versions: 1 2 3 4 5 6 7 8 9 10 11 12 13 14 15 16 17 18 19 20 21 22 23 24 25 26 27 28 29 30 31 32 33 34 35 36 37 38 39 40 41 42 43 44 45 46 47 48 49 50

000
ASUS43 KLOT 040308
RWRIL

ILLINOIS REGIONAL WEATHER ROUNDUP
NATIONAL WEATHER SERVICE CHICAGO/ROMEOVILLE IL
1000 PM CDT MON AUG 03 2015

NOTE: "FAIR" INDICATES FEW OR NO CLOUDS BELOW 12,000 FEET WITH NO
SIGNIFICANT WEATHER AND/OR OBSTRUCTIONS TO VISIBILITY.

* THESE STATIONS ARE NOT UNDER NWS QUALITY CONTROL. THEY ALSO MAY NOT
  REPORT WEATHER SUCH AS PRECIPITATION OR FOG.

ILZ001-002-007-009-015-016-024-040400-
NORTHWEST ILLINOIS

CITY           SKY/WX    TMP DP  RH WIND       PRES   REMARKS
MOLINE         CLEAR     64  58  80 SW5       29.94R
STERLING*      CLEAR     66  57  72 CALM      29.91R
SAVANNA*       CLEAR     70  57  64 CALM      29.94R
$$

ILZ003-004-008-010-011-017-018-040400-
NORTH CENTRAL ILLINOIS

CITY           SKY/WX    TMP DP  RH WIND       PRES   REMARKS
ROCKFORD       CLEAR     67  55  65 W6        29.93R
FREEPORT*      CLEAR     61  57  84 W3        29.95R
ROCHELLE*      CLEAR     63  57  80 W5        29.94R
DE KALB*       CLEAR     68  56  63 W8        29.94R
PERU*          CLEAR     65  56  71 W6        29.94R
$$

ILZ005-006-012>014-019>023-040400-
NORTHEAST ILLINOIS

CITY           SKY/WX    TMP DP  RH WIND       PRES   REMARKS
CHICAGO-OHARE  PTCLDY    70  54  56 W6        29.90R
CHICAGO-MIDWAY CLEAR     74  52  46 W6        29.90R
AURORA         CLEAR     63  56  78 W6        29.92R
LANSING*       CLEAR     69  53  55 W3        29.91R
JOLIET*        CLEAR     68  58  70 CALM      29.92R
WAUKEGAN       CLEAR     65  56  72 CALM      29.89R
DUPAGE AIRPORT CLEAR     67  56  67 SW5       29.91R
KANKAKEE*      CLEAR     65  58  79 CALM      29.94R
WHEELING       CLEAR     73  51  46 CALM      29.91R
MORRIS*        CLEAR     64  58  81 NW6       29.91S
ROMEOVILLE*    CLEAR     67  55  66 W6        29.92R
NORTHERLY ISL    N/A     76  49  38 W5          N/A
$$

LMZ740>746-040400-
SOUTHERN LAKE MICHIGAN

STATION/POSITION SKY/WX   TEMP    WIND        PRES    VSBY  WAVE
                          AIR SEA DIR/SP/G                  HT/PER
                          (F)     (DEG/KT/KT) (MB)    (MI)  (FT/S)
HARRISON CRIB              77     290/ 11/ 12   N/A
BURNHAM HARBOR             76     270/  5/  8   N/A
CALUMET HARBOR             76     270/  2/  5   N/A
BURNS HARBOR               73     180/  3/  5 1012.5R
MICHIGAN CITY              73     160/  3/  5   N/A
MICHIGAN CITY 6N           73 74  220/  6/  8   N/A           1/ 4
ST. JOSEPH                 73 74  250/  8/ 10   N/A           1/ 4
$$

ILZ025>027-034>036-040-047-049-050-058-095>099-040400-
WEST-CENTRAL ILLINOIS

CITY           SKY/WX    TMP DP  RH WIND       PRES   REMARKS
QUINCY         PTCLDY    72  66  81 NW6       29.96R
GALESBURG*     CLEAR     65  61  87 CALM      29.96R
MACOMB*        CLEAR     65  63  92 NW3       29.98R
JACKSONVILLE*  CLEAR     73  69  88 CALM      29.95R
PITTSFIELD*    MOCLDY    75  65  71 NW3       29.96R
$$

ILZ028>032-037-038-041>044-048-051>054-059>061-040400-
CENTRAL ILLINOIS

CITY           SKY/WX    TMP DP  RH WIND       PRES   REMARKS
PONTIAC        CLEAR     67  62  82 W3        29.95R
BLOOMINGTON    CLEAR     72  60  65 CALM      29.97R
DECATUR        CLEAR     73  62  68 N3        29.95R
PEORIA         CLEAR     71  59  65 NW3       29.95R
LACON*         CLEAR     64  61  89 CALM      29.94R
LINCOLN*       CLEAR     72  62  70 CALM      29.95R
SPRINGFIELD    CLEAR     71  66  84 CALM      29.95R
TAYLORVILLE    CLEAR     68  66  94 CALM      29.95R
$$

ILZ033-039-045-046-055>057-062-063-040400-
EAST-CENTRAL ILLINOIS

CITY           SKY/WX    TMP DP  RH WIND       PRES   REMARKS
CHAMPAIGN      CLEAR     67  61  81 N6        29.95R
DANVILLE*      CLEAR     67  60  80 NW6       29.92R
RANTOUL*       CLEAR     73  59  62 NW6       29.95R
MATTOON        CLEAR     70  64  81 NW5       29.93R
PARIS*         CLEAR     68  65  90 CALM      29.94R
$$

ILZ079-100>102-040400-
SOUTHWEST ILLINOIS

CITY           SKY/WX    TMP DP  RH WIND       PRES   REMARKS
ALTON          CLEAR     77  66  69 NW6       29.91S
BELLEVILLE     CLEAR     76  73  89 CALM      29.92R
CAHOKIA*       CLEAR     80  70  71 CALM      29.92R HX  83
SPARTA*        CLEAR     80  71  74 CALM      29.94R HX  83
$$

ILZ064>066-069>071-074>076-080>082-084>086-088>090-092>094-040400-
SOUTH-CENTRAL ILLINOIS

CITY           SKY/WX    TMP DP  RH WIND       PRES   REMARKS
CARBONDALE     CLEAR     79  74  84 CALM      29.92R HX  82
CAIRO*         CLEAR     77  74  90 CALM      29.92R
EFFINGHAM*     CLEAR     74  62  66 CALM      29.95R
MARION         CLEAR     79  75  89 CALM      29.93R HX  82
MT. VERNON     CLEAR     73  66  78 CALM      29.94R
CENTRALIA*     CLEAR     73  68  86 CALM      29.93R
SALEM*         CLEAR     74  70  87 CALM      29.93R
METROPOLIS*    CLEAR     78  78  99 CALM      29.93R HX  81
$$

ILZ067-068-072-073-078-083-087-091-040400-
SOUTHEAST ILLINOIS

CITY           SKY/WX    TMP DP  RH WIND       PRES   REMARKS
LAWRENCEVILLE  CLEAR     75  69  81 NW6       29.92R
FLORA*         CLEAR     76  67  73 NW5       29.94R
FAIRFIELD*     CLEAR     76  71  84 NW3       29.92R
HARRISBURG*    CLEAR     76  75  96 CALM      29.93R
ROBINSON*      CLEAR     71  67  88 NW3       29.92R
CARMI*         CLEAR     74  67  79 NW3       29.92R
$$

ABBREVIATIONS USED IN REMARKS
   TC - TEMPERATURE IN CELSIUS
  WCI - WIND CHILL INDEX
   HX - HEAT INDEX
  VSB - VISIBILITY
$$




USA.gov is the U.S. government's official web portal to all federal, state and local government web resources and services.